カタログに戻る

STARLINK-11281

運用中通信VLEO
NORAD 60996·PAYLOAD·🇺🇸 United States

打ち上げ Sep 5, 2024 から Cape Canaveral Space Force Station

Loading…

次のパス (今後24時間)

TLE

最新Source: CelesTrak SupGP

元期: Sep 14, 2026, 20:52 UTC

1 60996C 24158G   26257.86993056  .00042119  00000+0  34698-3 0  2574
2 60996  53.1571  68.8592 0001093  84.8493 325.5268 15.69686314    12

AllMySatでSTARLINK-11281をリアルタイム追跡

Download on the App Store